When you browse on this site, cookies collect data to enhance your experience and personalize the content and advertising you see.
Visit our Privacy Policy to learn more. By continuing to use the site, you agree to this use of cookies and data.

Hourly Weather Chorley

Today, 2 July, Thursday

Time Temperature Precipitation Wind Pressure Humidity
00:00 +14°C° 0 mm 2 mps 743 mmHg 94%
01:00 +14°C° 1.2 mm 2 mps 743 mmHg 94%
02:00 +13°C° 1.2 mm 2 mps 743 mmHg 94%
03:00 +13°C° 1.2 mm 2 mps 743 mmHg 95%
04:00 +13°C° 2 mm 2 mps 743 mmHg 94%
05:00 +13°C° 2 mm 2 mps 744 mmHg 93%
06:00 +13°C° 0 mm 2 mps 744 mmHg 94%
07:00 +13°C° 0.7 mm 2 mps 744 mmHg 93%
08:00 +13°C° 0.7 mm 2 mps 745 mmHg 92%
09:00 +13°C° 0.7 mm 2 mps 745 mmHg 90%
10:00 +14°C° 0.2 mm 2 mps 745 mmHg 88%
11:00 +14°C° 0.2 mm 2 mps 746 mmHg 85%
12:00 +15°C° 0 mm 2 mps 746 mmHg 83%
13:00 +15°C° 0 mm 2 mps 747 mmHg 80%
14:00 +16°C° 0 mm 2 mps 747 mmHg 78%
15:00 +16°C° 0 mm 2 mps 747 mmHg 75%
16:00 +16°C° 0.1 mm 2 mps 747 mmHg 75%
17:00 +16°C° 0.1 mm 3 mps 747 mmHg 76%
18:00 +16°C° 0.1 mm 3 mps 748 mmHg 77%
19:00 +14°C° 0 mm 3 mps 748 mmHg 79%
20:00 +13°C° 0 mm 3 mps 748 mmHg 82%
21:00 +12°C° 0 mm 2 mps 748 mmHg 84%
22:00 +12°C° 0 mm 2 mps 748 mmHg 85%
23:00 +12°C° 0 mm 2 mps 748 mmHg 86%

Tomorrow, 3 July, Friday

Time Temperature Precipitation Wind Pressure Humidity
00:00 +12°C° 0 mm 2 mps 748 mmHg 86%
01:00 +12°C° 0 mm 2 mps 748 mmHg 86%
02:00 +11°C° 0 mm 3 mps 747 mmHg 86%
03:00 +11°C° 0 mm 3 mps 747 mmHg 86%
04:00 +11°C° 0.1 mm 4 mps 747 mmHg 86%
05:00 +12°C° 0.1 mm 4 mps 747 mmHg 86%
06:00 +12°C° 0.1 mm 5 mps 746 mmHg 86%
07:00 +12°C° 0.3 mm 5 mps 746 mmHg 87%
08:00 +11°C° 0.3 mm 6 mps 746 mmHg 87%
09:00 +11°C° 0.3 mm 6 mps 745 mmHg 88%
10:00 +12°C° 0.1 mm 7 mps 745 mmHg 87%
11:00 +12°C° 0.1 mm 7 mps 745 mmHg 87%
12:00 +13°C° 0.1 mm 8 mps 745 mmHg 86%
13:00 +13°C° 0.2 mm 8 mps 744 mmHg 86%
14:00 +15°C° 0.2 mm 8 mps 744 mmHg 87%
15:00 +15°C° 0.2 mm 8 mps 744 mmHg 87%
16:00 +15°C° 0.4 mm 7 mps 744 mmHg 89%
17:00 +15°C° 0.4 mm 7 mps 744 mmHg 90%
18:00 +15°C° 0.4 mm 7 mps 744 mmHg 91%
19:00 +15°C° 0.1 mm 6 mps 744 mmHg 92%
20:00 +15°C° 0.1 mm 5 mps 745 mmHg 93%
21:00 +15°C° 0.1 mm 4 mps 745 mmHg 93%
22:00 +15°C° 0.1 mm 4 mps 745 mmHg 94%
23:00 +15°C° 0.1 mm 4 mps 745 mmHg 94%

Day after tomorrow, 4 July, Saturday

Time Temperature Precipitation Wind Pressure Humidity
00:00 +14°C° 0.1 mm 3 mps 744 mmHg 94%
01:00 +14°C° 0.2 mm 3 mps 744 mmHg 94%
02:00 +14°C° 0.2 mm 3 mps 744 mmHg 94%
03:00 +14°C° 0.2 mm 3 mps 743 mmHg 95%
04:00 +16°C° 0.4 mm 3 mps 743 mmHg 94%
05:00 +16°C° 0.4 mm 3 mps 743 mmHg 94%
06:00 +15°C° 0.4 mm 4 mps 742 mmHg 94%
07:00 +17°C° 0.1 mm 4 mps 742 mmHg 93%
08:00 +16°C° 0.1 mm 5 mps 742 mmHg 91%
09:00 +17°C° 0.1 mm 5 mps 741 mmHg 90%
10:00 +17°C° 0.2 mm 6 mps 741 mmHg 89%
11:00 +16°C° 0.2 mm 6 mps 742 mmHg 89%
12:00 +16°C° 0.2 mm 7 mps 742 mmHg 89%
13:00 +16°C° 0.1 mm 7 mps 742 mmHg 88%
14:00 +16°C° 0.1 mm 7 mps 742 mmHg 88%
15:00 +16°C° 0.1 mm 8 mps 742 mmHg 87%
16:00 +16°C° 0.1 mm 7 mps 742 mmHg 86%
17:00 +16°C° 0.1 mm 7 mps 743 mmHg 86%
18:00 +16°C° 0.1 mm 7 mps 743 mmHg 85%
19:00 +15°C° 0.1 mm 6 mps 743 mmHg 87%
20:00 +15°C° 0.1 mm 5 mps 743 mmHg 89%
21:00 +14°C° 0.1 mm 4 mps 743 mmHg 91%
22:00 +14°C° 0.1 mm 4 mps 743 mmHg 91%
23:00 +14°C° 0.1 mm 4 mps 743 mmHg 91%

5 July, Sunday

Time Temperature Precipitation Wind Pressure Humidity
00:00 +14°C° 0.1 mm 4 mps 742 mmHg 91%
01:00 +15°C° 0.3 mm 5 mps 741 mmHg 90%
02:00 +15°C° 0.3 mm 6 mps 741 mmHg 90%
03:00 +15°C° 0.3 mm 7 mps 740 mmHg 90%
04:00 +15°C° 0.2 mm 8 mps 739 mmHg 88%
05:00 +16°C° 0.2 mm 9 mps 738 mmHg 86%
06:00 +16°C° 0.2 mm 10 mps 738 mmHg 85%
07:00 +14°C° 0.3 mm 11 mps 739 mmHg 80%
08:00 +14°C° 0.3 mm 11 mps 739 mmHg 76%
09:00 +13°C° 0.3 mm 12 mps 740 mmHg 71%
10:00 +13°C° 0.1 mm 11 mps 741 mmHg 68%
11:00 +14°C° 0.1 mm 11 mps 741 mmHg 66%
12:00 +14°C° 0.1 mm 10 mps 742 mmHg 63%
13:00 +14°C° 0.1 mm 10 mps 742 mmHg 63%
14:00 +14°C° 0.1 mm 10 mps 742 mmHg 63%
15:00 +14°C° 0.1 mm 10 mps 742 mmHg 64%
16:00 +15°C° 0.2 mm 9 mps 742 mmHg 66%
17:00 +13°C° 0.2 mm 9 mps 742 mmHg 68%
18:00 +13°C° 0.2 mm 9 mps 743 mmHg 70%
19:00 +12°C° 0.5 mm 9 mps 743 mmHg 72%
20:00 +12°C° 0.5 mm 9 mps 743 mmHg 75%
21:00 +11°C° 0.5 mm 9 mps 743 mmHg 77%
22:00 +11°C° 0.4 mm 9 mps 743 mmHg 78%
23:00 +10°C° 0.4 mm 9 mps 743 mmHg 80%

6 July, Monday

Time Temperature Precipitation Wind Pressure Humidity
00:00 +10°C° 0.4 mm 9 mps 743 mmHg 81%
01:00 +10°C° 0.3 mm 9 mps 743 mmHg 81%
02:00 +10°C° 0.3 mm 9 mps 744 mmHg 81%
03:00 +10°C° 0.3 mm 9 mps 744 mmHg 80%
04:00 +10°C° 0.2 mm 9 mps 745 mmHg 81%
05:00 +9°C° 0.2 mm 10 mps 746 mmHg 82%
06:00 +9°C° 0.2 mm 10 mps 746 mmHg 83%
07:00 +11°C° 0.1 mm 9 mps 748 mmHg 79%
08:00 +12°C° 0.1 mm 9 mps 749 mmHg 76%
09:00 +13°C° 0.1 mm 8 mps 750 mmHg 73%
10:00 +13°C° 0.1 mm 8 mps 751 mmHg 70%
11:00 +15°C° 0.1 mm 8 mps 751 mmHg 66%
12:00 +15°C° 0.1 mm 8 mps 752 mmHg 63%
13:00 +15°C° 0 mm 8 mps 753 mmHg 63%
14:00 +15°C° 0 mm 8 mps 753 mmHg 63%
15:00 +15°C° 0 mm 8 mps 754 mmHg 62%
16:00 +14°C° 0 mm 7 mps 754 mmHg 64%
17:00 +14°C° 0 mm 7 mps 755 mmHg 65%
18:00 +12°C° 0 mm 7 mps 755 mmHg 67%
19:00 +11°C° 0 mm 6 mps 755 mmHg 70%
20:00 +10°C° 0 mm 5 mps 756 mmHg 72%
21:00 +9°C° 0 mm 5 mps 756 mmHg 75%
22:00 +10°C° 0 mm 4 mps 756 mmHg 77%
23:00 +10°C° 0 mm 4 mps 756 mmHg 79%

7 July, Tuesday

Time Temperature Precipitation Wind Pressure Humidity
00:00 +10°C° 0 mm 4 mps 756 mmHg 81%
01:00 +10°C° 0 mm 3 mps 756 mmHg 82%
02:00 +10°C° 0 mm 3 mps 756 mmHg 83%
03:00 +9°C° 0 mm 3 mps 756 mmHg 84%
04:00 +10°C° 0 mm 3 mps 756 mmHg 84%
05:00 +11°C° 0 mm 4 mps 756 mmHg 83%
06:00 +11°C° 0 mm 4 mps 756 mmHg 83%
07:00 +12°C° 0 mm 4 mps 756 mmHg 79%
08:00 +13°C° 0 mm 4 mps 756 mmHg 75%
09:00 +14°C° 0 mm 4 mps 756 mmHg 70%
10:00 +15°C° 0 mm 4 mps 756 mmHg 68%
11:00 +15°C° 0 mm 4 mps 756 mmHg 66%
12:00 +17°C° 0 mm 4 mps 756 mmHg 63%
13:00 +17°C° 0 mm 4 mps 756 mmHg 62%
14:00 +17°C° 0 mm 4 mps 756 mmHg 61%
15:00 +17°C° 0 mm 4 mps 756 mmHg 60%
16:00 +17°C° 0 mm 4 mps 755 mmHg 62%
17:00 +16°C° 0 mm 3 mps 755 mmHg 63%
18:00 +16°C° 0 mm 3 mps 755 mmHg 65%
19:00 +14°C° 0 mm 2 mps 755 mmHg 68%
20:00 +13°C° 0 mm 1 mps 755 mmHg 71%
21:00 +12°C° 0 mm 1 mps 755 mmHg 75%
22:00 +12°C° 0 mm 1 mps 755 mmHg 74%
23:00 +12°C° 0 mm 1 mps 755 mmHg 74%
Show more